Time,TemperatureF,DewpointF,PressureIn,WindDirection,WindDirectionDegrees,WindSpeedMPH,WindSpeedGustMPH,Humidity,HourlyPrecipIn,Conditions,Clouds,dailyrainin,SoftwareType,DateUTC
2013-08-30 00:00:00,59.2,47.0,30.11,North,0,0.0,0.0,64,0.00,,SKC,0.00,VWS V13.00,2013-08-30 06:00:00,
2013-08-30 00:05:00,59.2,47.0,30.11,North,0,0.0,0.0,64,0.00,,SKC,0.00,VWS V13.00,2013-08-30 06:05:00,
2013-08-30 00:10:00,59.0,46.8,30.11,North,0,0.0,0.0,64,0.00,,SKC,0.00,VWS V13.00,2013-08-30 06:10:00,
2013-08-30 00:15:00,58.8,46.7,30.11,North,0,0.0,0.0,64,0.00,,SKC,0.00,VWS V13.00,2013-08-30 06:15:00,
2013-08-30 00:20:00,58.8,46.7,30.11,North,0,0.0,0.0,64,0.00,,SKC,0.00,VWS V13.00,2013-08-30 06:20:00,
2013-08-30 00:25:00,58.8,46.7,30.11,North,0,0.0,0.0,64,0.00,,SKC,0.00,VWS V13.00,2013-08-30 06:25:00,
2013-08-30 00:30:00,58.8,47.1,30.11,North,0,0.0,0.0,65,0.00,,SKC,0.00,VWS V13.00,2013-08-30 06:30:00,
2013-08-30 00:35:00,58.5,46.8,30.11,North,0,0.0,0.0,65,0.00,,SKC,0.00,VWS V13.00,2013-08-30 06:35:00,
2013-08-30 00:40:00,58.5,46.8,30.11,North,0,0.0,0.0,65,0.00,,SKC,0.00,VWS V13.00,2013-08-30 06:40:00,
2013-08-30 00:45:00,58.5,46.8,30.11,North,0,0.0,0.0,65,0.00,,SKC,0.00,VWS V13.00,2013-08-30 06:45:00,
2013-08-30 00:50:00,58.3,47.0,30.11,North,0,0.0,0.0,66,0.00,,SKC,0.00,VWS V13.00,2013-08-30 06:50:00,
2013-08-30 00:55:00,58.3,47.0,30.11,North,0,0.0,0.0,66,0.00,,SKC,0.00,VWS V13.00,2013-08-30 06:55:00,
2013-08-30 01:00:00,58.3,47.0,30.11,North,0,0.0,0.0,66,0.00,,SKC,0.00,VWS V13.00,2013-08-30 07:00:00,
2013-08-30 01:05:00,58.1,46.8,30.11,North,0,0.0,0.0,66,0.00,,SKC,0.00,VWS V13.00,2013-08-30 07:05:00,
2013-08-30 01:10:00,58.1,46.8,30.11,North,0,0.0,0.0,66,0.00,,SKC,0.00,VWS V13.00,2013-08-30 07:10:00,
2013-08-30 01:15:00,57.9,47.0,30.11,North,0,0.0,0.0,67,0.00,,SKC,0.00,VWS V13.00,2013-08-30 07:15:00,
2013-08-30 01:20:00,57.9,47.0,30.11,North,0,0.0,0.0,67,0.00,,SKC,0.00,VWS V13.00,2013-08-30 07:20:00,
2013-08-30 01:25:00,57.7,46.9,30.11,North,0,0.0,0.0,67,0.00,,SKC,0.00,VWS V13.00,2013-08-30 07:25:00,
2013-08-30 01:30:00,57.6,46.7,30.11,North,0,0.0,0.0,67,0.00,,SKC,0.00,VWS V13.00,2013-08-30 07:30:00,
2013-08-30 01:35:00,57.6,46.7,30.11,North,0,0.0,0.0,67,0.00,,SKC,0.00,VWS V13.00,2013-08-30 07:35:00,
2013-08-30 01:40:00,57.6,46.7,30.11,North,0,0.0,0.0,67,0.00,,SKC,0.00,VWS V13.00,2013-08-30 07:40:00,
2013-08-30 01:45:00,57.4,46.9,30.11,North,0,0.0,0.0,68,0.00,,SKC,0.00,VWS V13.00,2013-08-30 07:45:00,
2013-08-30 01:50:00,57.2,46.8,30.11,North,0,0.0,0.0,68,0.00,,SKC,0.00,VWS V13.00,2013-08-30 07:50:00,
2013-08-30 01:55:00,57.2,46.8,30.11,North,0,0.0,0.0,68,0.00,,SKC,0.00,VWS V13.00,2013-08-30 07:55:00,
2013-08-30 02:00:00,57.2,46.8,30.11,North,0,0.0,0.0,68,0.00,,SKC,0.00,VWS V13.00,2013-08-30 08:00:00,
2013-08-30 02:05:00,57.2,46.8,30.11,North,0,0.0,0.0,68,0.00,,SKC,0.00,VWS V13.00,2013-08-30 08:05:00,
2013-08-30 02:10:00,57.0,46.6,30.11,North,0,0.0,0.0,68,0.00,,SKC,0.00,VWS V13.00,2013-08-30 08:10:00,
2013-08-30 02:15:00,57.0,47.0,30.11,North,0,0.0,0.0,69,0.00,,SKC,0.00,VWS V13.00,2013-08-30 08:15:00,
2013-08-30 02:20:00,57.0,47.0,30.11,North,0,0.0,0.0,69,0.00,,SKC,0.00,VWS V13.00,2013-08-30 08:20:00,
2013-08-30 02:25:00,57.0,47.0,30.11,North,0,0.0,0.0,69,0.00,,SKC,0.00,VWS V13.00,2013-08-30 08:25:00,
2013-08-30 02:30:00,56.8,46.8,30.08,North,0,0.0,0.0,69,0.00,,SKC,0.00,VWS V13.00,2013-08-30 08:30:00,
2013-08-30 02:35:00,56.7,46.6,30.08,North,0,0.0,0.0,69,0.00,,SKC,0.00,VWS V13.00,2013-08-30 08:35:00,
2013-08-30 02:40:00,56.7,46.6,30.08,North,0,0.0,0.0,69,0.00,,SKC,0.00,VWS V13.00,2013-08-30 08:40:00,
2013-08-30 02:45:00,56.7,47.0,30.08,North,0,0.0,0.0,70,0.00,,SKC,0.00,VWS V13.00,2013-08-30 08:45:00,
2013-08-30 02:50:00,56.5,46.8,30.08,North,0,0.0,0.0,70,0.00,,SKC,0.00,VWS V13.00,2013-08-30 08:50:00,
2013-08-30 02:55:00,56.5,46.8,30.08,North,0,0.0,0.0,70,0.00,,SKC,0.00,VWS V13.00,2013-08-30 08:55:00,
2013-08-30 03:00:00,56.3,46.7,30.08,North,0,0.0,0.0,70,0.00,,SKC,0.00,VWS V13.00,2013-08-30 09:00:00,
2013-08-30 03:05:00,56.3,46.7,30.08,North,0,0.0,0.0,70,0.00,,SKC,0.00,VWS V13.00,2013-08-30 09:05:00,
2013-08-30 03:10:00,56.3,46.7,30.08,North,0,0.0,0.0,70,0.00,,SKC,0.00,VWS V13.00,2013-08-30 09:10:00,
2013-08-30 03:15:00,56.1,46.5,30.08,North,0,0.0,0.0,70,0.00,,SKC,0.00,VWS V13.00,2013-08-30 09:15:00,
2013-08-30 03:20:00,56.1,46.5,30.08,North,0,0.0,0.0,70,0.00,,SKC,0.00,VWS V13.00,2013-08-30 09:20:00,
2013-08-30 03:25:00,55.9,46.7,30.08,North,0,0.0,0.0,71,0.00,,SKC,0.00,VWS V13.00,2013-08-30 09:25:00,
2013-08-30 03:30:00,55.9,46.7,30.08,North,0,0.0,0.0,71,0.00,,SKC,0.00,VWS V13.00,2013-08-30 09:30:00,
2013-08-30 03:35:00,55.9,46.7,30.08,North,0,0.0,0.0,71,0.00,,SKC,0.00,VWS V13.00,2013-08-30 09:35:00,
2013-08-30 03:40:00,55.8,46.5,30.08,North,0,0.0,0.0,71,0.00,,SKC,0.00,VWS V13.00,2013-08-30 09:40:00,
2013-08-30 03:45:00,55.8,46.5,30.08,North,0,0.0,0.0,71,0.00,,SKC,0.00,VWS V13.00,2013-08-30 09:45:00,
2013-08-30 03:50:00,55.6,46.3,30.08,North,0,0.0,0.0,71,0.00,,SKC,0.00,VWS V13.00,2013-08-30 09:50:00,
2013-08-30 03:55:00,55.6,46.7,30.08,North,0,0.0,0.0,72,0.00,,SKC,0.00,VWS V13.00,2013-08-30 09:55:00,
2013-08-30 04:01:00,55.6,46.7,30.08,North,0,0.0,0.0,72,0.00,,SKC,0.00,VWS V13.00,2013-08-30 10:01:00,
2013-08-30 04:06:00,55.6,46.7,30.08,North,0,0.0,0.0,72,0.00,,SKC,0.00,VWS V13.00,2013-08-30 10:06:00,
2013-08-30 04:11:00,55.6,46.7,30.08,North,0,0.0,0.0,72,0.00,,SKC,0.00,VWS V13.00,2013-08-30 10:11:00,
2013-08-30 04:16:00,55.6,46.7,30.08,North,0,0.0,0.0,72,0.00,,SKC,0.00,VWS V13.00,2013-08-30 10:16:00,
2013-08-30 04:21:00,55.4,46.5,30.08,North,0,0.0,0.0,72,0.00,,SKC,0.00,VWS V13.00,2013-08-30 10:21:00,
2013-08-30 04:26:00,55.4,46.5,30.08,North,0,0.0,0.0,72,0.00,,SKC,0.00,VWS V13.00,2013-08-30 10:26:00,
2013-08-30 04:31:00,55.2,46.4,30.08,North,0,0.0,0.0,72,0.00,,SKC,0.00,VWS V13.00,2013-08-30 10:31:00,
2013-08-30 04:36:00,55.2,46.7,30.08,North,0,0.0,0.0,73,0.00,,SKC,0.00,VWS V13.00,2013-08-30 10:36:00,
2013-08-30 04:41:00,55.2,46.7,30.08,North,0,0.0,0.0,73,0.00,,SKC,0.00,VWS V13.00,2013-08-30 10:41:00,
2013-08-30 04:46:00,55.0,46.5,30.08,North,0,0.0,0.0,73,0.00,,SKC,0.00,VWS V13.00,2013-08-30 10:46:00,
2013-08-30 04:51:00,55.0,46.5,30.08,North,0,0.0,0.0,73,0.00,,SKC,0.00,VWS V13.00,2013-08-30 10:51:00,
2013-08-30 04:56:00,55.0,46.5,30.08,North,0,0.0,0.0,73,0.00,,SKC,0.00,VWS V13.00,2013-08-30 10:56:00,
2013-08-30 05:01:00,54.9,46.4,30.08,North,0,0.0,0.0,73,0.00,,SKC,0.00,VWS V13.00,2013-08-30 11:01:00,
2013-08-30 05:06:00,54.9,46.4,30.08,North,0,0.0,0.0,73,0.00,,SKC,0.00,VWS V13.00,2013-08-30 11:06:00,
2013-08-30 05:11:00,54.7,46.2,30.08,North,0,0.0,0.0,73,0.00,,SKC,0.00,VWS V13.00,2013-08-30 11:11:00,
2013-08-30 05:16:00,54.7,46.6,30.08,North,0,0.0,0.0,74,0.00,,SKC,0.00,VWS V13.00,2013-08-30 11:16:00,
2013-08-30 05:21:00,54.7,46.6,30.08,North,0,0.0,0.0,74,0.00,,SKC,0.00,VWS V13.00,2013-08-30 11:21:00,
2013-08-30 05:26:00,54.7,46.6,30.08,North,0,0.0,0.0,74,0.00,,SKC,0.00,VWS V13.00,2013-08-30 11:26:00,
2013-08-30 05:31:00,54.5,46.4,30.08,North,0,0.0,0.0,74,0.00,,SKC,0.00,VWS V13.00,2013-08-30 11:31:00,
2013-08-30 05:36:00,54.5,46.4,30.08,North,0,0.0,0.0,74,0.00,,SKC,0.00,VWS V13.00,2013-08-30 11:36:00,
2013-08-30 05:41:00,54.5,46.4,30.08,North,0,0.0,0.0,74,0.00,,SKC,0.00,VWS V13.00,2013-08-30 11:41:00,
2013-08-30 05:46:00,54.5,46.4,30.08,North,0,0.0,0.0,74,0.00,,SKC,0.00,VWS V13.00,2013-08-30 11:46:00,
2013-08-30 05:51:00,54.5,46.4,30.08,North,0,0.0,0.0,74,0.00,,SKC,0.00,VWS V13.00,2013-08-30 11:51:00,
2013-08-30 05:56:00,54.3,46.2,30.08,North,0,0.0,0.0,74,0.00,,SKC,0.00,VWS V13.00,2013-08-30 11:56:00,
2013-08-30 06:01:00,54.3,46.2,30.08,North,0,0.0,0.0,74,0.00,,SKC,0.00,VWS V13.00,2013-08-30 12:01:00,
2013-08-30 06:06:00,54.1,46.0,30.08,North,0,0.0,0.0,74,0.00,,SKC,0.00,VWS V13.00,2013-08-30 12:06:00,
2013-08-30 06:11:00,54.1,46.4,30.08,North,0,0.0,0.0,75,0.00,,SKC,0.00,VWS V13.00,2013-08-30 12:11:00,
2013-08-30 06:16:00,54.0,46.2,30.08,North,0,0.0,0.0,75,0.00,,SKC,0.00,VWS V13.00,2013-08-30 12:16:00,
2013-08-30 06:21:00,54.0,46.2,30.08,North,0,0.0,0.0,75,0.00,,SKC,0.00,VWS V13.00,2013-08-30 12:21:00,
2013-08-30 06:26:00,54.0,46.2,30.08,North,0,0.0,0.0,75,0.00,,SKC,0.00,VWS V13.00,2013-08-30 12:26:00,
2013-08-30 06:31:00,54.0,46.2,30.11,North,0,0.0,0.0,75,0.00,,SKC,0.00,VWS V13.00,2013-08-30 12:31:00,
2013-08-30 06:36:00,54.1,46.4,30.11,North,0,0.0,0.0,75,0.00,,SKC,0.00,VWS V13.00,2013-08-30 12:36:00,
2013-08-30 06:41:00,54.0,46.2,30.11,North,0,0.0,0.0,75,0.00,,SKC,0.00,VWS V13.00,2013-08-30 12:41:00,
2013-08-30 06:46:00,54.0,46.2,30.11,North,0,0.0,0.0,75,0.00,,SKC,0.00,VWS V13.00,2013-08-30 12:46:00,
2013-08-30 06:51:00,53.8,46.0,30.11,North,0,0.0,0.0,75,0.00,,SKC,0.00,VWS V13.00,2013-08-30 12:51:00,
2013-08-30 06:56:00,53.8,46.4,30.11,North,0,0.0,0.0,76,0.00,,SKC,0.00,VWS V13.00,2013-08-30 12:56:00,
2013-08-30 07:01:00,53.8,46.4,30.11,North,0,0.0,0.0,76,0.00,,SKC,0.00,VWS V13.00,2013-08-30 13:01:00,
2013-08-30 07:06:00,54.0,46.6,30.11,North,0,0.0,0.0,76,0.00,,SKC,0.00,VWS V13.00,2013-08-30 13:06:00,
2013-08-30 07:11:00,54.0,46.6,30.11,North,0,0.0,0.0,76,0.00,,SKC,0.00,VWS V13.00,2013-08-30 13:11:00,
2013-08-30 07:16:00,54.1,46.8,30.11,North,0,0.0,0.0,76,0.00,,SKC,0.00,VWS V13.00,2013-08-30 13:16:00,
2013-08-30 07:21:00,54.3,46.9,30.11,North,0,0.0,0.0,76,0.00,,SKC,0.00,VWS V13.00,2013-08-30 13:21:00,
2013-08-30 07:26:00,54.7,47.3,30.11,North,0,0.0,0.0,76,0.00,,SKC,0.00,VWS V13.00,2013-08-30 13:26:00,
2013-08-30 07:31:00,56.3,48.8,30.11,North,0,0.0,0.0,76,0.00,,SKC,0.00,VWS V13.00,2013-08-30 13:31:00,
2013-08-30 07:36:00,60.4,51.8,30.11,North,0,0.0,0.0,73,0.00,,SKC,0.00,VWS V13.00,2013-08-30 13:36:00,
2013-08-30 07:41:00,64.4,52.8,30.11,North,0,0.0,0.0,66,0.00,,SKC,0.00,VWS V13.00,2013-08-30 13:41:00,
2013-08-30 07:46:00,63.3,50.5,30.11,North,0,0.0,0.0,63,0.00,,SKC,0.00,VWS V13.00,2013-08-30 13:46:00,
2013-08-30 07:51:00,61.3,48.2,30.11,North,0,0.0,0.0,62,0.00,,SKC,0.00,VWS V13.00,2013-08-30 13:51:00,
2013-08-30 07:56:00,60.3,47.6,30.11,North,0,0.0,0.0,63,0.00,,SKC,0.00,VWS V13.00,2013-08-30 13:56:00,
2013-08-30 08:01:00,61.2,49.7,30.11,North,0,0.0,0.0,66,0.00,,SKC,0.00,VWS V13.00,2013-08-30 14:01:00,
2013-08-30 08:06:00,63.7,49.1,30.11,North,0,0.0,0.0,59,0.00,,SKC,0.00,VWS V13.00,2013-08-30 14:06:00,
2013-08-30 08:11:00,63.9,47.9,30.11,North,0,0.0,0.0,56,0.00,,SKC,0.00,VWS V13.00,2013-08-30 14:11:00,
2013-08-30 08:16:00,63.1,48.6,30.11,North,0,0.0,0.0,59,0.00,,SKC,0.00,VWS V13.00,2013-08-30 14:16:00,
2013-08-30 08:21:00,62.6,48.1,30.11,North,0,0.0,0.0,59,0.00,,SKC,0.00,VWS V13.00,2013-08-30 14:21:00,
2013-08-30 08:26:00,62.1,48.0,30.11,North,0,0.0,0.0,60,0.00,,SKC,0.00,VWS V13.00,2013-08-30 14:26:00,
2013-08-30 08:31:00,61.7,48.1,30.11,North,0,0.0,0.0,61,0.00,,SKC,0.00,VWS V13.00,2013-08-30 14:31:00,
2013-08-30 08:36:00,61.5,48.4,30.11,North,0,0.0,0.0,62,0.00,,SKC,0.00,VWS V13.00,2013-08-30 14:36:00,
2013-08-30 08:41:00,61.5,48.8,30.11,North,0,0.0,0.0,63,0.00,,SKC,0.00,VWS V13.00,2013-08-30 14:41:00,
2013-08-30 08:46:00,61.5,49.2,30.11,North,0,0.0,0.0,64,0.00,,SKC,0.00,VWS V13.00,2013-08-30 14:46:00,
2013-08-30 08:51:00,61.5,49.7,30.11,North,0,0.0,0.0,65,0.00,,SKC,0.00,VWS V13.00,2013-08-30 14:51:00,
2013-08-30 08:56:00,61.7,49.8,30.11,North,0,0.0,0.0,65,0.00,,SKC,0.00,VWS V13.00,2013-08-30 14:56:00,
2013-08-30 09:01:00,62.2,50.3,30.11,North,0,0.0,0.0,65,0.00,,SKC,0.00,VWS V13.00,2013-08-30 15:01:00,
2013-08-30 09:06:00,62.8,50.4,30.11,North,0,0.0,0.0,64,0.00,,SKC,0.00,VWS V13.00,2013-08-30 15:06:00,
2013-08-30 09:11:00,63.1,50.8,30.11,North,0,0.0,0.0,64,0.00,,SKC,0.00,VWS V13.00,2013-08-30 15:11:00,
2013-08-30 09:16:00,63.9,51.5,30.11,North,0,0.0,0.0,64,0.00,,SKC,0.00,VWS V13.00,2013-08-30 15:16:00,
2013-08-30 09:21:00,64.6,51.7,30.11,North,0,0.0,0.0,63,0.00,,SKC,0.00,VWS V13.00,2013-08-30 15:21:00,
2013-08-30 09:26:00,65.5,51.7,30.11,North,0,0.0,0.0,61,0.00,,SKC,0.00,VWS V13.00,2013-08-30 15:26:00,
2013-08-30 09:31:00,66.2,51.5,30.11,North,0,0.0,0.0,59,0.00,,SKC,0.00,VWS V13.00,2013-08-30 15:31:00,
2013-08-30 09:36:00,66.9,50.7,30.11,North,0,0.0,0.0,56,0.00,,SKC,0.00,VWS V13.00,2013-08-30 15:36:00,
2013-08-30 09:41:00,67.8,50.1,30.11,North,0,0.0,0.0,53,0.00,,SKC,0.00,VWS V13.00,2013-08-30 15:41:00,
2013-08-30 09:46:00,68.4,50.6,30.11,North,0,0.0,0.0,53,0.00,,SKC,0.00,VWS V13.00,2013-08-30 15:46:00,
2013-08-30 09:51:00,68.9,50.6,30.11,North,0,0.0,0.0,52,0.00,,SKC,0.00,VWS V13.00,2013-08-30 15:51:00,
2013-08-30 09:56:00,69.6,50.2,30.11,North,0,0.0,0.0,50,0.00,,SKC,0.00,VWS V13.00,2013-08-30 15:56:00,
2013-08-30 10:01:00,70.2,48.4,30.11,North,0,0.0,0.0,46,0.00,,SKC,0.00,VWS V13.00,2013-08-30 16:01:00,
2013-08-30 10:06:00,70.5,48.8,30.11,North,0,0.0,0.0,46,0.00,,SKC,0.00,VWS V13.00,2013-08-30 16:06:00,
2013-08-30 10:11:00,70.9,47.9,30.11,North,0,0.0,0.0,44,0.00,,SKC,0.00,VWS V13.00,2013-08-30 16:11:00,
2013-08-30 10:16:00,71.2,49.4,30.11,North,0,0.0,0.0,46,0.00,,SKC,0.00,VWS V13.00,2013-08-30 16:16:00,
2013-08-30 10:21:00,71.4,47.8,30.11,North,0,0.0,0.0,43,0.00,,SKC,0.00,VWS V13.00,2013-08-30 16:21:00,
2013-08-30 10:26:00,71.4,47.8,30.11,North,0,0.0,0.0,43,0.00,,SKC,0.00,VWS V13.00,2013-08-30 16:26:00,
2013-08-30 10:31:00,71.6,45.4,30.11,North,0,0.0,0.0,39,0.00,,SKC,0.00,VWS V13.00,2013-08-30 16:31:00,
2013-08-30 10:36:00,72.0,45.7,30.11,North,0,0.0,0.0,39,0.00,,SKC,0.00,VWS V13.00,2013-08-30 16:36:00,
2013-08-30 10:41:00,72.1,47.8,30.11,North,0,0.0,0.0,42,0.00,,SKC,0.00,VWS V13.00,2013-08-30 16:41:00,
2013-08-30 10:46:00,72.1,47.8,30.11,North,0,0.0,0.0,42,0.00,,SKC,0.00,VWS V13.00,2013-08-30 16:46:00,
2013-08-30 10:51:00,72.3,47.3,30.11,North,0,0.0,0.0,41,0.00,,SKC,0.00,VWS V13.00,2013-08-30 16:51:00,
2013-08-30 10:56:00,72.5,47.5,30.11,North,0,0.0,0.0,41,0.00,,SKC,0.00,VWS V13.00,2013-08-30 16:56:00,
2013-08-30 11:01:00,72.5,48.1,30.11,North,0,0.0,0.0,42,0.00,,SKC,0.00,VWS V13.00,2013-08-30 17:01:00,
2013-08-30 11:06:00,72.9,46.5,30.11,North,0,0.0,0.0,39,0.00,,SKC,0.00,VWS V13.00,2013-08-30 17:06:00,
2013-08-30 11:11:00,73.0,48.6,30.11,North,0,0.0,0.0,42,0.00,,SKC,0.00,VWS V13.00,2013-08-30 17:11:00,
2013-08-30 11:16:00,73.4,46.3,30.11,North,0,0.0,0.0,38,0.00,,SKC,0.00,VWS V13.00,2013-08-30 17:16:00,
2013-08-30 11:21:00,73.6,48.5,30.11,North,0,0.0,0.0,41,0.00,,SKC,0.00,VWS V13.00,2013-08-30 17:21:00,
2013-08-30 11:26:00,74.3,47.1,30.11,North,0,0.0,0.0,38,0.00,,SKC,0.00,VWS V13.00,2013-08-30 17:26:00,
2013-08-30 11:31:00,74.8,46.8,30.11,North,0,0.0,0.0,37,0.00,,SKC,0.00,VWS V13.00,2013-08-30 17:31:00,
2013-08-30 11:36:00,75.6,47.5,30.11,North,0,0.0,0.0,37,0.00,,SKC,0.00,VWS V13.00,2013-08-30 17:36:00,
2013-08-30 11:41:00,76.1,47.2,30.11,North,0,0.0,0.0,36,0.00,,SKC,0.00,VWS V13.00,2013-08-30 17:41:00,
2013-08-30 11:46:00,75.9,44.8,30.11,North,0,0.0,0.0,33,0.00,,SKC,0.00,VWS V13.00,2013-08-30 17:46:00,
2013-08-30 11:51:00,75.4,43.5,30.11,North,0,0.0,0.0,32,0.00,,SKC,0.00,VWS V13.00,2013-08-30 17:51:00,
2013-08-30 11:57:00,74.8,44.6,30.11,North,0,0.0,0.0,34,0.00,,SKC,0.00,VWS V13.00,2013-08-30 17:57:00,
2013-08-30 12:02:00,73.9,44.6,30.11,North,0,0.0,0.0,35,0.00,,SKC,0.00,VWS V13.00,2013-08-30 18:02:00,
2013-08-30 12:07:00,73.4,45.6,30.11,North,0,0.0,0.0,37,0.00,,SKC,0.00,VWS V13.00,2013-08-30 18:07:00,
2013-08-30 12:12:00,73.0,45.2,30.11,North,0,0.0,0.0,37,0.00,,SKC,0.00,VWS V13.00,2013-08-30 18:12:00,
2013-08-30 12:17:00,73.0,46.0,30.08,North,0,0.0,0.0,38,0.00,,SKC,0.00,VWS V13.00,2013-08-30 18:17:00,
2013-08-30 12:22:00,73.9,43.8,30.08,North,0,0.0,0.0,34,0.00,,SKC,0.00,VWS V13.00,2013-08-30 18:22:00,
2013-08-30 12:27:00,75.0,44.8,30.08,North,0,0.0,0.0,34,0.00,,SKC,0.00,VWS V13.00,2013-08-30 18:27:00,
2013-08-30 12:32:00,75.9,43.1,30.08,North,0,0.0,0.0,31,0.00,,SKC,0.00,VWS V13.00,2013-08-30 18:32:00,
2013-08-30 12:37:00,76.1,44.1,30.08,North,0,0.0,0.0,32,0.00,,SKC,0.00,VWS V13.00,2013-08-30 18:37:00,
2013-08-30 12:42:00,76.6,44.6,30.08,North,0,0.0,0.0,32,0.00,,SKC,0.00,VWS V13.00,2013-08-30 18:42:00,
2013-08-30 12:47:00,77.2,44.2,30.08,North,0,0.0,0.0,31,0.00,,SKC,0.00,VWS V13.00,2013-08-30 18:47:00,
2013-08-30 12:52:00,77.5,44.5,30.08,North,0,0.0,0.0,31,0.00,,SKC,0.00,VWS V13.00,2013-08-30 18:52:00,
2013-08-30 12:57:00,77.9,44.9,30.08,North,0,0.0,0.0,31,0.00,,SKC,0.00,VWS V13.00,2013-08-30 18:57:00,
2013-08-30 13:02:00,78.6,46.3,30.08,North,0,0.0,0.0,32,0.00,,SKC,0.00,VWS V13.00,2013-08-30 19:02:00,
2013-08-30 13:07:00,79.2,45.1,30.08,North,0,0.0,0.0,30,0.00,,SKC,0.00,VWS V13.00,2013-08-30 19:07:00,
2013-08-30 13:12:00,80.2,46.0,30.08,North,0,0.0,0.0,30,0.00,,SKC,0.00,VWS V13.00,2013-08-30 19:12:00,
2013-08-30 13:17:00,80.8,45.6,30.08,North,0,0.0,0.0,29,0.00,,SKC,0.00,VWS V13.00,2013-08-30 19:17:00,
2013-08-30 13:22:00,81.7,46.4,30.08,North,0,0.0,0.0,29,0.00,,SKC,0.00,VWS V13.00,2013-08-30 19:22:00,
2013-08-30 13:27:00,82.2,46.8,30.08,North,0,0.0,0.0,29,0.00,,SKC,0.00,VWS V13.00,2013-08-30 19:27:00,
2013-08-30 13:32:00,82.8,46.4,30.08,North,0,0.0,0.0,28,0.00,,SKC,0.00,VWS V13.00,2013-08-30 19:32:00,
2013-08-30 13:37:00,83.5,46.0,30.08,North,0,0.0,0.0,27,0.00,,SKC,0.00,VWS V13.00,2013-08-30 19:37:00,
2013-08-30 13:42:00,83.8,45.3,30.08,North,0,0.0,0.0,26,0.00,,SKC,0.00,VWS V13.00,2013-08-30 19:42:00,
2013-08-30 13:47:00,84.4,45.8,30.08,North,0,0.0,0.0,26,0.00,,SKC,0.00,VWS V13.00,2013-08-30 19:47:00,
2013-08-30 13:52:00,84.7,45.1,30.08,North,0,0.0,0.0,25,0.00,,SKC,0.00,VWS V13.00,2013-08-30 19:52:00,
2013-08-30 13:57:00,85.5,46.7,30.08,North,0,0.0,0.0,26,0.00,,SKC,0.00,VWS V13.00,2013-08-30 19:57:00,
2013-08-30 14:02:00,86.4,45.3,30.08,North,0,0.0,0.0,24,0.00,,SKC,0.00,VWS V13.00,2013-08-30 20:02:00,
2013-08-30 14:07:00,86.0,45.0,30.08,North,0,0.0,0.0,24,0.00,,SKC,0.00,VWS V13.00,2013-08-30 20:07:00,
2013-08-30 14:12:00,85.8,44.9,30.08,North,0,0.0,0.0,24,0.00,,SKC,0.00,VWS V13.00,2013-08-30 20:12:00,
2013-08-30 14:17:00,86.0,43.9,30.05,North,0,0.0,0.0,23,0.00,,SKC,0.00,VWS V13.00,2013-08-30 20:17:00,
2013-08-30 14:22:00,86.0,42.8,30.05,North,0,0.0,0.0,22,0.00,,SKC,0.00,VWS V13.00,2013-08-30 20:22:00,
2013-08-30 14:27:00,85.8,43.8,30.05,North,0,0.0,0.0,23,0.00,,SKC,0.00,VWS V13.00,2013-08-30 20:27:00,
2013-08-30 14:32:00,85.6,44.7,30.05,North,0,0.0,0.0,24,0.00,,SKC,0.00,VWS V13.00,2013-08-30 20:32:00,
2013-08-30 14:37:00,85.6,43.6,30.05,North,0,0.0,0.0,23,0.00,,SKC,0.00,VWS V13.00,2013-08-30 20:37:00,
2013-08-30 14:42:00,85.6,44.7,30.05,North,0,0.0,0.0,24,0.00,,SKC,0.00,VWS V13.00,2013-08-30 20:42:00,
2013-08-30 14:47:00,85.6,44.7,30.05,North,0,0.0,0.0,24,0.00,,SKC,0.00,VWS V13.00,2013-08-30 20:47:00,
2013-08-30 14:52:00,85.8,46.0,30.05,North,0,0.0,0.0,25,0.00,,SKC,0.00,VWS V13.00,2013-08-30 20:52:00,
2013-08-30 14:57:00,85.6,44.7,30.05,North,0,0.0,0.0,24,0.00,,SKC,0.00,VWS V13.00,2013-08-30 20:57:00,
2013-08-30 15:02:00,85.5,44.6,30.05,North,0,0.0,0.0,24,0.00,,SKC,0.00,VWS V13.00,2013-08-30 21:02:00,
2013-08-30 15:07:00,85.3,42.2,30.05,North,0,0.0,0.0,22,0.00,,SKC,0.00,VWS V13.00,2013-08-30 21:07:00,
2013-08-30 15:12:00,84.9,41.9,30.05,North,0,0.0,0.0,22,0.00,,SKC,0.00,VWS V13.00,2013-08-30 21:12:00,
2013-08-30 15:17:00,84.0,42.3,30.05,North,0,0.0,0.0,23,0.00,,SKC,0.00,VWS V13.00,2013-08-30 21:17:00,
2013-08-30 15:22:00,83.1,41.5,30.05,North,0,0.0,0.0,23,0.00,,SKC,0.00,VWS V13.00,2013-08-30 21:22:00,
2013-08-30 15:27:00,83.1,41.5,30.05,North,0,0.0,0.0,23,0.00,,SKC,0.00,VWS V13.00,2013-08-30 21:27:00,
2013-08-30 15:32:00,82.9,43.5,30.05,North,0,0.0,0.0,25,0.00,,SKC,0.00,VWS V13.00,2013-08-30 21:32:00,
2013-08-30 15:37:00,82.9,42.5,30.05,North,0,0.0,0.0,24,0.00,,SKC,0.00,VWS V13.00,2013-08-30 21:37:00,
2013-08-30 15:42:00,82.8,42.3,30.05,North,0,0.0,0.0,24,0.00,,SKC,0.00,VWS V13.00,2013-08-30 21:42:00,
2013-08-30 15:47:00,82.6,42.2,30.05,North,0,0.0,0.0,24,0.00,,SKC,0.00,VWS V13.00,2013-08-30 21:47:00,
2013-08-30 15:52:00,81.9,42.6,30.05,North,0,0.0,0.0,25,0.00,,SKC,0.00,VWS V13.00,2013-08-30 21:52:00,
2013-08-30 15:57:00,81.3,42.2,30.02,North,0,0.0,0.0,25,0.00,,SKC,0.00,VWS V13.00,2013-08-30 21:57:00,
2013-08-30 16:02:00,81.1,44.0,30.02,North,0,0.0,0.0,27,0.00,,SKC,0.00,VWS V13.00,2013-08-30 22:02:00,
2013-08-30 16:07:00,80.8,41.7,30.02,North,0,0.0,0.0,25,0.00,,SKC,0.00,VWS V13.00,2013-08-30 22:07:00,
2013-08-30 16:12:00,80.6,42.6,30.02,North,0,0.0,0.0,26,0.00,,SKC,0.00,VWS V13.00,2013-08-30 22:12:00,
2013-08-30 16:17:00,80.4,42.4,30.02,North,0,0.0,0.0,26,0.00,,SKC,0.00,VWS V13.00,2013-08-30 22:17:00,
2013-08-30 16:22:00,80.2,43.3,30.02,North,0,0.0,0.0,27,0.00,,SKC,0.00,VWS V13.00,2013-08-30 22:22:00,
2013-08-30 16:27:00,79.9,43.0,30.02,North,0,0.0,0.0,27,0.00,,SKC,0.00,VWS V13.00,2013-08-30 22:27:00,
2013-08-30 16:32:00,79.5,45.4,30.02,North,0,0.0,0.0,30,0.00,,SKC,0.00,VWS V13.00,2013-08-30 22:32:00,
2013-08-30 16:37:00,79.3,44.4,30.02,North,0,0.0,0.0,29,0.00,,SKC,0.00,VWS V13.00,2013-08-30 22:37:00,
2013-08-30 16:42:00,79.3,44.4,30.02,North,0,0.0,0.0,29,0.00,,SKC,0.00,VWS V13.00,2013-08-30 22:42:00,
2013-08-30 16:47:00,79.0,44.9,30.02,North,0,0.0,0.0,30,0.00,,SKC,0.00,VWS V13.00,2013-08-30 22:47:00,
2013-08-30 16:52:00,78.8,44.8,30.02,North,0,0.0,0.0,30,0.00,,SKC,0.00,VWS V13.00,2013-08-30 22:52:00,
2013-08-30 16:57:00,78.8,44.8,30.02,North,0,0.0,0.0,30,0.00,,SKC,0.00,VWS V13.00,2013-08-30 22:57:00,
2013-08-30 17:02:00,78.4,44.5,30.02,North,0,0.0,0.0,30,0.00,,SKC,0.00,VWS V13.00,2013-08-30 23:02:00,
2013-08-30 17:07:00,78.1,45.0,30.02,North,0,0.0,0.0,31,0.00,,SKC,0.00,VWS V13.00,2013-08-30 23:07:00,
2013-08-30 17:12:00,77.7,44.7,30.02,North,0,0.0,0.0,31,0.00,,SKC,0.00,VWS V13.00,2013-08-30 23:12:00,
2013-08-30 17:17:00,77.4,44.4,30.02,North,0,0.0,0.0,31,0.00,,SKC,0.00,VWS V13.00,2013-08-30 23:17:00,
2013-08-30 17:22:00,77.2,44.2,30.02,North,0,0.0,0.0,31,0.00,,SKC,0.00,VWS V13.00,2013-08-30 23:22:00,
2013-08-30 17:27:00,77.2,45.1,30.02,North,0,0.0,0.0,32,0.00,,SKC,0.00,VWS V13.00,2013-08-30 23:27:00,
2013-08-30 17:32:00,77.2,44.2,30.02,North,0,0.0,0.0,31,0.00,,SKC,0.00,VWS V13.00,2013-08-30 23:32:00,
2013-08-30 17:37:00,77.2,45.1,30.02,North,0,0.0,0.0,32,0.00,,SKC,0.00,VWS V13.00,2013-08-30 23:37:00,
2013-08-30 17:42:00,77.4,45.2,30.02,North,0,0.0,0.0,32,0.00,,SKC,0.00,VWS V13.00,2013-08-30 23:42:00,
2013-08-30 17:47:00,77.4,44.4,30.02,North,0,0.0,0.0,31,0.00,,SKC,0.00,VWS V13.00,2013-08-30 23:47:00,
2013-08-30 17:52:00,77.4,45.2,30.02,North,0,0.0,0.0,32,0.00,,SKC,0.00,VWS V13.00,2013-08-30 23:52:00,
2013-08-30 17:57:00,77.4,45.2,30.02,North,0,0.0,0.0,32,0.00,,SKC,0.00,VWS V13.00,2013-08-30 23:57:00,
2013-08-30 18:02:00,77.2,45.1,30.02,North,0,0.0,0.0,32,0.00,,SKC,0.00,VWS V13.00,2013-08-31 00:02:00,
2013-08-30 18:07:00,77.0,44.1,30.02,North,0,0.0,0.0,31,0.00,,SKC,0.00,VWS V13.00,2013-08-31 00:07:00,
2013-08-30 18:12:00,76.8,44.8,30.02,North,0,0.0,0.0,32,0.00,,SKC,0.00,VWS V13.00,2013-08-31 00:12:00,
2013-08-30 18:18:00,76.6,44.6,30.02,North,0,0.0,0.0,32,0.00,,SKC,0.00,VWS V13.00,2013-08-31 00:18:00,
2013-08-30 18:23:00,76.3,44.3,30.02,North,0,0.0,0.0,32,0.00,,SKC,0.00,VWS V13.00,2013-08-31 00:23:00,
2013-08-30 18:28:00,75.9,44.0,30.02,North,0,0.0,0.0,32,0.00,,SKC,0.00,VWS V13.00,2013-08-31 00:28:00,
2013-08-30 18:33:00,75.7,43.8,30.02,North,0,0.0,0.0,32,0.00,,SKC,0.00,VWS V13.00,2013-08-31 00:33:00,
2013-08-30 18:38:00,75.4,43.5,30.02,North,0,0.0,0.0,32,0.00,,SKC,0.00,VWS V13.00,2013-08-31 00:38:00,
2013-08-30 18:43:00,75.2,43.3,30.02,North,0,0.0,0.0,32,0.00,,SKC,0.00,VWS V13.00,2013-08-31 00:43:00,
2013-08-30 18:48:00,75.0,44.0,30.02,North,0,0.0,0.0,33,0.00,,SKC,0.00,VWS V13.00,2013-08-31 00:48:00,
2013-08-30 18:53:00,74.7,43.7,30.02,North,0,0.0,0.0,33,0.00,,SKC,0.00,VWS V13.00,2013-08-31 00:53:00,
2013-08-30 18:58:00,74.3,43.4,30.02,North,0,0.0,0.0,33,0.00,,SKC,0.00,VWS V13.00,2013-08-31 00:58:00,
2013-08-30 19:03:00,74.3,43.4,30.02,North,0,0.0,0.0,33,0.00,,SKC,0.00,VWS V13.00,2013-08-31 01:03:00,
2013-08-30 19:08:00,74.1,43.2,30.02,North,0,0.0,0.0,33,0.00,,SKC,0.00,VWS V13.00,2013-08-31 01:08:00,
2013-08-30 19:13:00,73.9,43.0,30.02,North,0,0.0,0.0,33,0.00,,SKC,0.00,VWS V13.00,2013-08-31 01:13:00,
2013-08-30 19:18:00,73.8,43.7,30.02,North,0,0.0,0.0,34,0.00,,SKC,0.00,VWS V13.00,2013-08-31 01:18:00,
2013-08-30 19:23:00,73.6,42.7,30.02,North,0,0.0,0.0,33,0.00,,SKC,0.00,VWS V13.00,2013-08-31 01:23:00,
2013-08-30 19:28:00,73.4,42.6,30.02,North,0,0.0,0.0,33,0.00,,SKC,0.00,VWS V13.00,2013-08-31 01:28:00,
2013-08-30 19:33:00,73.2,42.4,30.02,North,0,0.0,0.0,33,0.00,,SKC,0.00,VWS V13.00,2013-08-31 01:33:00,
2013-08-30 19:38:00,73.0,43.0,30.02,North,0,0.0,0.0,34,0.00,,SKC,0.00,VWS V13.00,2013-08-31 01:38:00,
2013-08-30 19:43:00,72.7,43.5,30.02,North,0,0.0,0.0,35,0.00,,SKC,0.00,VWS V13.00,2013-08-31 01:43:00,
2013-08-30 19:48:00,72.3,44.6,30.02,North,0,0.0,0.0,37,0.00,,SKC,0.00,VWS V13.00,2013-08-31 01:48:00,
2013-08-30 19:53:00,71.8,45.5,30.02,North,0,0.0,0.0,39,0.00,,SKC,0.00,VWS V13.00,2013-08-31 01:53:00,
2013-08-30 19:58:00,71.2,46.4,30.02,North,0,0.0,0.0,41,0.00,,SKC,0.00,VWS V13.00,2013-08-31 01:58:00,
2013-08-30 20:03:00,70.7,46.5,30.02,North,0,0.0,0.0,42,0.00,,SKC,0.00,VWS V13.00,2013-08-31 02:03:00,
2013-08-30 20:08:00,70.2,46.0,30.02,North,0,0.0,0.0,42,0.00,,SKC,0.00,VWS V13.00,2013-08-31 02:08:00,
2013-08-30 20:13:00,69.6,45.5,30.02,North,0,0.0,0.0,42,0.00,,SKC,0.00,VWS V13.00,2013-08-31 02:13:00,
2013-08-30 20:18:00,69.1,45.0,30.02,North,0,0.0,0.0,42,0.00,,SKC,0.00,VWS V13.00,2013-08-31 02:18:00,
2013-08-30 20:23:00,68.7,45.3,30.02,North,0,0.0,0.0,43,0.00,,SKC,0.00,VWS V13.00,2013-08-31 02:23:00,
2013-08-30 20:28:00,68.4,45.0,30.02,North,0,0.0,0.0,43,0.00,,SKC,0.00,VWS V13.00,2013-08-31 02:28:00,
2013-08-30 20:33:00,68.0,44.7,30.02,North,0,0.0,0.0,43,0.00,,SKC,0.00,VWS V13.00,2013-08-31 02:33:00,
2013-08-30 20:38:00,67.8,45.1,30.02,North,0,0.0,0.0,44,0.00,,SKC,0.00,VWS V13.00,2013-08-31 02:38:00,
2013-08-30 20:43:00,67.5,44.8,30.02,North,0,0.0,0.0,44,0.00,,SKC,0.00,VWS V13.00,2013-08-31 02:43:00,
2013-08-30 20:48:00,67.1,44.5,30.02,North,0,0.0,0.0,44,0.00,,SKC,0.00,VWS V13.00,2013-08-31 02:48:00,
2013-08-30 20:53:00,67.1,44.5,30.02,North,0,0.0,0.0,44,0.00,,SKC,0.00,VWS V13.00,2013-08-31 02:53:00,
2013-08-30 20:58:00,67.1,44.5,30.02,North,0,0.0,0.0,44,0.00,,SKC,0.00,VWS V13.00,2013-08-31 02:58:00,
2013-08-30 21:03:00,67.3,44.0,30.02,North,0,0.0,0.0,43,0.00,,SKC,0.00,VWS V13.00,2013-08-31 03:03:00,
2013-08-30 21:08:00,67.3,44.0,30.02,North,0,0.0,0.0,43,0.00,,SKC,0.00,VWS V13.00,2013-08-31 03:08:00,
2013-08-30 21:13:00,67.1,43.9,30.02,North,0,0.0,0.0,43,0.00,,SKC,0.00,VWS V13.00,2013-08-31 03:13:00,
2013-08-30 21:18:00,66.7,44.2,30.02,North,0,0.0,0.0,44,0.00,,SKC,0.00,VWS V13.00,2013-08-31 03:18:00,
2013-08-30 21:23:00,66.0,44.1,30.02,North,0,0.0,0.0,45,0.00,,SKC,0.00,VWS V13.00,2013-08-31 03:23:00,
2013-08-30 21:28:00,65.5,44.2,30.05,North,0,0.0,0.0,46,0.00,,SKC,0.00,VWS V13.00,2013-08-31 03:28:00,
2013-08-30 21:33:00,65.1,43.8,30.05,North,0,0.0,0.0,46,0.00,,SKC,0.00,VWS V13.00,2013-08-31 03:33:00,
2013-08-30 21:38:00,64.9,43.7,30.05,North,0,0.0,0.0,46,0.00,,SKC,0.00,VWS V13.00,2013-08-31 03:38:00,
2013-08-30 21:43:00,64.4,43.8,30.05,North,0,0.0,0.0,47,0.00,,SKC,0.00,VWS V13.00,2013-08-31 03:43:00,
2013-08-30 21:48:00,64.0,44.0,30.05,North,0,0.0,0.0,48,0.00,,SKC,0.00,VWS V13.00,2013-08-31 03:48:00,
2013-08-30 21:53:00,63.7,44.2,30.05,North,0,0.0,0.0,49,0.00,,SKC,0.00,VWS V13.00,2013-08-31 03:53:00,
2013-08-30 21:58:00,63.3,43.8,30.02,North,0,0.0,0.0,49,0.00,,SKC,0.00,VWS V13.00,2013-08-31 03:58:00,
2013-08-30 22:01:00,63.3,44.4,30.02,North,0,0.0,0.0,50,0.00,,SKC,0.00,VWS V13.00,2013-08-31 04:01:00,
2013-08-30 22:06:00,63.0,44.0,30.02,North,0,0.0,0.0,50,0.00,,SKC,0.00,VWS V13.00,2013-08-31 04:06:00,
2013-08-30 22:11:00,62.6,43.7,30.02,North,0,0.0,0.0,50,0.00,,SKC,0.00,VWS V13.00,2013-08-31 04:11:00,
2013-08-30 22:16:00,62.4,44.1,30.02,North,0,0.0,0.0,51,0.00,,SKC,0.00,VWS V13.00,2013-08-31 04:16:00,
2013-08-30 22:21:00,62.2,44.4,30.02,North,0,0.0,0.0,52,0.00,,SKC,0.00,VWS V13.00,2013-08-31 04:21:00,
2013-08-30 22:26:00,61.9,44.1,30.02,North,0,0.0,0.0,52,0.00,,SKC,0.00,VWS V13.00,2013-08-31 04:26:00,
2013-08-30 22:31:00,61.7,43.9,30.05,North,0,0.0,0.0,52,0.00,,SKC,0.00,VWS V13.00,2013-08-31 04:31:00,
2013-08-30 22:37:00,61.5,43.8,30.05,North,0,0.0,0.0,52,0.00,,SKC,0.00,VWS V13.00,2013-08-31 04:37:00,
2013-08-30 22:42:00,61.3,44.1,30.05,North,0,0.0,0.0,53,0.00,,SKC,0.00,VWS V13.00,2013-08-31 04:42:00,
2013-08-30 22:47:00,61.3,44.1,30.02,North,0,0.0,0.0,53,0.00,,SKC,0.00,VWS V13.00,2013-08-31 04:47:00,
2013-08-30 22:52:00,61.2,43.9,30.02,North,0,0.0,0.0,53,0.00,,SKC,0.00,VWS V13.00,2013-08-31 04:52:00,
2013-08-30 22:57:00,61.0,43.8,30.02,North,0,0.0,0.0,53,0.00,,SKC,0.00,VWS V13.00,2013-08-31 04:57:00,
2013-08-30 23:02:00,60.8,44.1,30.05,North,0,0.0,0.0,54,0.00,,SKC,0.00,VWS V13.00,2013-08-31 05:02:00,
2013-08-30 23:07:00,60.6,43.9,30.05,North,0,0.0,0.0,54,0.00,,SKC,0.00,VWS V13.00,2013-08-31 05:07:00,
2013-08-30 23:12:00,60.6,43.9,30.05,North,0,0.0,0.0,54,0.00,,SKC,0.00,VWS V13.00,2013-08-31 05:12:00,
2013-08-30 23:17:00,60.6,44.4,30.05,North,0,0.0,0.0,55,0.00,,SKC,0.00,VWS V13.00,2013-08-31 05:17:00,
2013-08-30 23:22:00,60.6,44.4,30.05,North,0,0.0,0.0,55,0.00,,SKC,0.00,VWS V13.00,2013-08-31 05:22:00,
2013-08-30 23:27:00,60.4,44.2,30.05,North,0,0.0,0.0,55,0.00,,SKC,0.00,VWS V13.00,2013-08-31 05:27:00,
2013-08-30 23:32:00,60.4,44.2,30.05,North,0,0.0,0.0,55,0.00,,SKC,0.00,VWS V13.00,2013-08-31 05:32:00,
2013-08-30 23:37:00,60.6,44.4,30.05,North,0,0.0,0.0,55,0.00,,SKC,0.00,VWS V13.00,2013-08-31 05:37:00,
2013-08-30 23:42:00,60.8,44.1,30.05,North,0,0.0,0.0,54,0.00,,SKC,0.00,VWS V13.00,2013-08-31 05:42:00,
2013-08-30 23:47:00,61.0,44.2,30.05,North,0,0.0,0.0,54,0.00,,SKC,0.00,VWS V13.00,2013-08-31 05:47:00,
2013-08-30 23:52:00,61.2,44.4,30.05,North,0,0.0,0.0,54,0.00,,SKC,0.00,VWS V13.00,2013-08-31 05:52:00,
2013-08-30 23:57:00,61.3,44.1,30.05,North,0,0.0,0.0,53,0.00,,SKC,0.00,VWS V13.00,2013-08-31 05:57:00,